Flag for U.S.A. Weather past 2 weeks in Mobile, Alabama, U.S.A.

Now
88 °F

Sunny.


Feels Like: 98 °F
Forecast: 76 / 91 °F
Wind: 7 mph from Northeast

Location: Mobile Downtown Airport

Current Time: Jul 31, 2015 at 12:33:43 PM

Latest Report: Jul 31, 2015 at 11:53 AM


Visibility: 10 mi

Pressure: 29.96 "Hg

Humidity: 65%

Dew point: 75 °F

Location of MobileLocation

Historic Weather in Mobile — Graph

°F

Mobile temperature yesterday

Maximum temperature yesterday: 96 °F (at 1:53 PM)
Minimum temperature yesterday: 77 °F (at 8:53 PM)
Average temperature yesterday: 84 °F

Past Weeks' High & Low Weather Summary

 TemperatureHumidityPressure
High96 °F (Jul 17, 2:53 PM)100% (Jul 20, 3:53 AM)30.05 "Hg (Jul 20, 3:53 AM)
Low73 °F (Jul 18, 5:53 AM)41% (Jul 18, 3:53 PM)29.87 "Hg (Jul 21, 4:53 PM)
Average84 °F76%29.97 "Hg
* Reported Jul 16 10:53 AM — Jul 31 10:53 AM, Mobile, Weather by CustomWeather, © 2015

Note: Actual official high and low records may vary slightly from our data, if they occured in-between our weather recording intervals... More about our weather records

Advertising

Mobile weather history for previous 24 hours

 ConditionsComfort  
Time TempWeatherWind HumidityBarometerVisibility
10:53 AM
Fri, Jul 31
86 °FPassing clouds.8 mph67%29.95 "Hg10 mi
9:53 AM84 °FPassing clouds.9 mph70%29.95 "Hg10 mi
8:53 AM81 °FBroken clouds.7 mph74%29.96 "Hg10 mi
7:53 AM80 °FSunny.8 mph74%29.95 "Hg10 mi
6:53 AM78 °FClear.8 mph79%29.94 "Hg10 mi
5:53 AM78 °FClear.8 mph79%29.92 "Hg10 mi
4:53 AM77 °FClear.8 mph90%29.91 "Hg10 mi
3:53 AM77 °FClear.8 mph88%29.90 "Hg10 mi
2:53 AM77 °FClear.3 mph88%29.91 "Hg10 mi
1:53 AM77 °FPartly cloudy.6 mph88%29.94 "Hg10 mi
12:53 AM77 °FPassing clouds.No wind90%29.96 "Hg10 mi
11:53 PM
Thu, Jul 30
78 °FClear.6 mph87%29.95 "Hg10 mi
10:53 PM77 °FClear.3 mph94%29.96 "Hg10 mi
9:53 PM77 °FClear.5 mph90%29.95 "Hg10 mi
8:53 PM77 °FPassing clouds.6 mph90%29.97 "Hg10 mi
7:53 PM81 °FRain. Scattered clouds.13 mph79%29.96 "Hg10 mi
6:53 PM87 °FThundershowers. Scattered clouds.17 mph63%29.91 "Hg10 mi
5:53 PM87 °FSunny.No wind63%29.89 "Hg10 mi
4:53 PM84 °FSunny.No wind70%29.90 "Hg10 mi
4:00 PM90 °FThunderstorms. Broken clouds.36 mph61%29.91 "Hg10 mi
2:53 PM96 °FPassing clouds.9 mph52%29.93 "Hg10 mi
1:53 PM96 °FPassing clouds.7 mph54%29.96 "Hg10 mi
12:53 PM95 °FSunny.12 mph56%29.97 "Hg10 mi
Weather by CustomWeather, © 2015

See weather overviewHow to use our weather pages